Year,Month,Day,Hour,Minute,Value (Times are PST for windspeed in km/hr)
2007,12,15,00,00,18.00
2007,12,15,00,01,22.00
2007,12,15,00,02,10.40
2007,12,15,00,03,13.10
2007,12,15,00,04,18.90
2007,12,15,00,05,18.60
2007,12,15,00,06,15.40
2007,12,15,00,07,17.60
2007,12,15,00,08,15.50
2007,12,15,00,09,17.50
2007,12,15,00,10,17.90
2007,12,15,00,11,11.50
2007,12,15,00,12,13.70
2007,12,15,00,13,15.90
2007,12,15,00,14,20.60
2007,12,15,00,15,16.90
2007,12,15,00,16,17.00
2007,12,15,00,17,15.50
2007,12,15,00,18,16.80
2007,12,15,00,19,17.70
2007,12,15,00,20,13.70
2007,12,15,00,21,12.60
2007,12,15,00,22,18.70
2007,12,15,00,23,13.70
2007,12,15,00,24,19.60
2007,12,15,00,25,21.70
2007,12,15,00,26,19.80
2007,12,15,00,27,21.60
2007,12,15,00,28,15.00
2007,12,15,00,29,20.20
2007,12,15,00,30,15.80
2007,12,15,00,31,17.80
2007,12,15,00,32,18.20
2007,12,15,00,33,20.10
2007,12,15,00,34,15.40
2007,12,15,00,35,22.10
2007,12,15,00,36,18.90
2007,12,15,00,37,13.20
2007,12,15,00,38,12.10
2007,12,15,00,39,12.60
2007,12,15,00,40,14.50
2007,12,15,00,41,12.30
2007,12,15,00,42,11.20
2007,12,15,00,43,14.20
2007,12,15,00,44,14.70
2007,12,15,00,45,11.80
2007,12,15,00,46,12.20
2007,12,15,00,47,9.40
2007,12,15,00,48,8.30
2007,12,15,00,49,11.30
2007,12,15,00,50,11.80
2007,12,15,00,51,9.30
2007,12,15,00,52,7.40
2007,12,15,00,53,7.30
2007,12,15,00,54,12.90
2007,12,15,00,55,9.20
2007,12,15,00,56,8.50
2007,12,15,00,57,8.60
2007,12,15,00,58,10.60
2007,12,15,00,59,9.50
2007,12,15,01,00,8.50
2007,12,15,01,01,9.60
2007,12,15,01,02,4.50
2007,12,15,01,03,6.40
2007,12,15,01,04,6.40
2007,12,15,01,05,8.00
2007,12,15,01,06,7.20
2007,12,15,01,07,5.70
2007,12,15,01,08,6.30
2007,12,15,01,09,6.80
2007,12,15,01,10,2.70
2007,12,15,01,11,6.20
2007,12,15,01,12,4.40
2007,12,15,01,13,5.00
2007,12,15,01,14,4.50
2007,12,15,01,15,3.60
2007,12,15,01,16,5.80
2007,12,15,01,17,6.70
2007,12,15,01,18,8.40
2007,12,15,01,19,7.00
2007,12,15,01,20,6.00
2007,12,15,01,21,6.10
2007,12,15,01,22,8.10
2007,12,15,01,23,8.10
2007,12,15,01,24,6.40
2007,12,15,01,25,5.70
2007,12,15,01,26,7.90
2007,12,15,01,27,6.30
2007,12,15,01,28,10.00
2007,12,15,01,29,7.60
2007,12,15,01,30,5.50
2007,12,15,01,31,6.30
2007,12,15,01,32,4.00
2007,12,15,01,33,4.70
2007,12,15,01,34,6.30
2007,12,15,01,35,8.20
2007,12,15,01,36,6.50
2007,12,15,01,37,7.10
2007,12,15,01,38,8.00
2007,12,15,01,39,12.70
2007,12,15,01,40,10.30
2007,12,15,01,41,15.20
2007,12,15,01,42,11.90
2007,12,15,01,43,10.00
2007,12,15,01,44,12.60
2007,12,15,01,45,9.60
2007,12,15,01,46,14.00
2007,12,15,01,47,16.10
2007,12,15,01,48,11.40
2007,12,15,01,49,8.60
2007,12,15,01,50,10.70
2007,12,15,01,51,15.30
2007,12,15,01,52,16.60
2007,12,15,01,53,13.10
2007,12,15,01,54,10.30
2007,12,15,01,55,10.00
2007,12,15,01,56,15.10
2007,12,15,01,57,11.80
2007,12,15,01,58,9.90
2007,12,15,01,59,10.30
2007,12,15,02,00,9.70
2007,12,15,02,01,11.50
2007,12,15,02,02,6.90
2007,12,15,02,03,8.70
2007,12,15,02,04,6.30
2007,12,15,02,05,7.80
2007,12,15,02,06,6.30
2007,12,15,02,07,6.40
2007,12,15,02,08,7.60
2007,12,15,02,09,6.70
2007,12,15,02,10,7.00
2007,12,15,02,11,7.60
2007,12,15,02,12,6.60
2007,12,15,02,13,6.70
2007,12,15,02,14,6.10
2007,12,15,02,15,4.10
2007,12,15,02,16,4.60
2007,12,15,02,17,3.00
2007,12,15,02,18,4.70
2007,12,15,02,19,4.50
2007,12,15,02,20,4.40
2007,12,15,02,21,3.60
2007,12,15,02,22,3.50
2007,12,15,02,23,3.20
2007,12,15,02,24,5.10
2007,12,15,02,25,4.30
2007,12,15,02,26,3.20
2007,12,15,02,27,3.20
2007,12,15,02,28,3.60
2007,12,15,02,29,2.00
2007,12,15,02,30,1.80
2007,12,15,02,31,3.20
2007,12,15,02,32,4.20
2007,12,15,02,33,4.20
2007,12,15,02,34,4.70
2007,12,15,02,35,4.80
2007,12,15,02,36,7.20
2007,12,15,02,37,5.50
2007,12,15,02,38,7.40
2007,12,15,02,39,4.40
2007,12,15,02,40,6.60
2007,12,15,02,41,8.10
2007,12,15,02,42,8.20
2007,12,15,02,43,8.90
2007,12,15,02,44,9.80
2007,12,15,02,45,8.70
2007,12,15,02,46,12.70
2007,12,15,02,47,13.00
2007,12,15,02,48,14.70
2007,12,15,02,49,12.90
2007,12,15,02,50,12.10
2007,12,15,02,51,15.10
2007,12,15,02,52,17.00
2007,12,15,02,53,15.10
2007,12,15,02,54,10.20
2007,12,15,02,55,12.80
2007,12,15,02,56,11.70
2007,12,15,02,57,9.60
2007,12,15,02,58,11.80
2007,12,15,02,59,16.20
2007,12,15,03,00,9.40
2007,12,15,03,01,8.80
2007,12,15,03,02,9.90
2007,12,15,03,03,12.50
2007,12,15,03,04,16.80
2007,12,15,03,05,14.60
2007,12,15,03,06,14.10
2007,12,15,03,07,11.30
2007,12,15,03,08,8.50
2007,12,15,03,09,16.30
2007,12,15,03,10,14.90
2007,12,15,03,11,11.50
2007,12,15,03,12,12.70
2007,12,15,03,13,10.40
2007,12,15,03,14,8.70
2007,12,15,03,15,12.90
2007,12,15,03,16,9.00
2007,12,15,03,17,10.90
2007,12,15,03,18,11.20
2007,12,15,03,19,11.30
2007,12,15,03,20,13.00
2007,12,15,03,21,11.90
2007,12,15,03,22,15.80
2007,12,15,03,23,22.30
2007,12,15,03,24,16.40
2007,12,15,03,25,11.70
2007,12,15,03,26,15.40
2007,12,15,03,27,11.30
2007,12,15,03,28,11.30
2007,12,15,03,29,15.50
2007,12,15,03,30,13.90
2007,12,15,03,31,17.30
2007,12,15,03,32,12.40
2007,12,15,03,33,11.90
2007,12,15,03,34,14.40
2007,12,15,03,35,19.70
2007,12,15,03,36,29.20
2007,12,15,03,37,15.70
2007,12,15,03,38,12.90
2007,12,15,03,39,19.80
2007,12,15,03,40,13.40
2007,12,15,03,41,18.50
2007,12,15,03,42,12.50
2007,12,15,03,43,19.90
2007,12,15,03,44,22.20
2007,12,15,03,45,17.90
2007,12,15,03,46,20.00
2007,12,15,03,47,11.40
2007,12,15,03,48,16.40
2007,12,15,03,49,12.30
2007,12,15,03,50,19.10
2007,12,15,03,51,19.20
2007,12,15,03,52,16.00
2007,12,15,03,53,24.50
2007,12,15,03,54,22.20
2007,12,15,03,55,16.60
2007,12,15,03,56,17.30
2007,12,15,03,57,17.40
2007,12,15,03,58,10.90
2007,12,15,03,59,15.70
2007,12,15,04,00,20.30
2007,12,15,04,01,18.80
2007,12,15,04,02,17.70
2007,12,15,04,03,10.60
2007,12,15,04,04,14.40
2007,12,15,04,05,18.30
2007,12,15,04,06,13.20
2007,12,15,04,07,19.40
2007,12,15,04,08,20.20
2007,12,15,04,09,17.20
2007,12,15,04,10,13.20
2007,12,15,04,11,17.60
2007,12,15,04,12,17.70
2007,12,15,04,13,18.20
2007,12,15,04,14,22.20
2007,12,15,04,15,24.50
2007,12,15,04,16,17.70
2007,12,15,04,17,19.50
2007,12,15,04,18,14.20
2007,12,15,04,19,16.80
2007,12,15,04,20,11.60
2007,12,15,04,21,7.00
2007,12,15,04,22,13.20
2007,12,15,04,23,18.00
2007,12,15,04,24,19.50
2007,12,15,04,25,14.20
2007,12,15,04,26,15.10
2007,12,15,04,27,18.80
2007,12,15,04,28,18.90
2007,12,15,04,29,19.90
2007,12,15,04,30,11.90
2007,12,15,04,31,25.70
2007,12,15,04,32,18.50
2007,12,15,04,33,12.00
2007,12,15,04,34,20.40
2007,12,15,04,35,21.90
2007,12,15,04,36,21.60
2007,12,15,04,37,20.40
2007,12,15,04,38,22.70
2007,12,15,04,39,19.50
2007,12,15,04,40,18.00
2007,12,15,04,41,21.90
2007,12,15,04,42,18.50
2007,12,15,04,43,20.50
2007,12,15,04,44,20.70
2007,12,15,04,45,16.40
2007,12,15,04,46,10.80
2007,12,15,04,47,11.60
2007,12,15,04,48,13.60
2007,12,15,04,49,22.10
2007,12,15,04,50,18.70
2007,12,15,04,51,20.30
2007,12,15,04,52,16.20
2007,12,15,04,53,15.70
2007,12,15,04,54,17.10
2007,12,15,04,55,18.00
2007,12,15,04,56,15.20
2007,12,15,04,57,17.30
2007,12,15,04,58,20.80
2007,12,15,04,59,17.80
2007,12,15,05,00,20.10
2007,12,15,05,01,14.90
2007,12,15,05,02,26.70
2007,12,15,05,03,16.60
2007,12,15,05,04,18.20
2007,12,15,05,05,13.90
2007,12,15,05,06,25.90
2007,12,15,05,07,25.90
2007,12,15,05,08,23.80
2007,12,15,05,09,15.70
2007,12,15,05,10,15.70
2007,12,15,05,11,21.30
2007,12,15,05,12,15.30
2007,12,15,05,13,20.70
2007,12,15,05,14,13.70
2007,12,15,05,15,14.10
2007,12,15,05,16,15.20
2007,12,15,05,17,15.70
2007,12,15,05,18,11.00
2007,12,15,05,19,15.70
2007,12,15,05,20,16.70
2007,12,15,05,21,13.30
2007,12,15,05,22,15.30
2007,12,15,05,23,22.20
2007,12,15,05,24,19.80
2007,12,15,05,25,16.10
2007,12,15,05,26,16.10
2007,12,15,05,27,19.50
2007,12,15,05,28,15.60
2007,12,15,05,29,10.70
2007,12,15,05,30,22.40
2007,12,15,05,31,14.50
2007,12,15,05,32,20.00
2007,12,15,05,33,21.10
2007,12,15,05,34,16.30
2007,12,15,05,35,18.20
2007,12,15,05,36,13.60
2007,12,15,05,37,17.30
2007,12,15,05,38,24.30
2007,12,15,05,39,20.00
2007,12,15,05,40,18.80
2007,12,15,05,41,14.20
2007,12,15,05,42,23.30
2007,12,15,05,43,21.80
2007,12,15,05,44,20.00
2007,12,15,05,45,12.40
2007,12,15,05,46,18.40
2007,12,15,05,47,14.30
2007,12,15,05,48,17.50
2007,12,15,05,49,16.90
2007,12,15,05,50,19.90
2007,12,15,05,51,13.50
2007,12,15,05,52,22.60
2007,12,15,05,53,23.70
2007,12,15,05,54,23.00
2007,12,15,05,55,17.70
2007,12,15,05,56,26.70
2007,12,15,05,57,32.80
2007,12,15,05,58,14.10
2007,12,15,05,59,16.20
2007,12,15,06,00,12.00
2007,12,15,06,01,13.30
2007,12,15,06,02,22.30
2007,12,15,06,03,20.30
2007,12,15,06,04,19.80
2007,12,15,06,05,15.70
2007,12,15,06,06,22.40
2007,12,15,06,07,21.30
2007,12,15,06,08,11.00
2007,12,15,06,09,14.20
2007,12,15,06,10,17.90
2007,12,15,06,11,17.20
2007,12,15,06,12,12.70
2007,12,15,06,13,14.90
2007,12,15,06,14,15.70
2007,12,15,06,15,10.70
2007,12,15,06,16,16.20
2007,12,15,06,17,14.80
2007,12,15,06,18,21.50
2007,12,15,06,19,10.30
2007,12,15,06,20,18.00
2007,12,15,06,21,20.60
2007,12,15,06,22,12.00
2007,12,15,06,23,12.60
2007,12,15,06,24,15.70
2007,12,15,06,25,19.00
2007,12,15,06,26,15.70
2007,12,15,06,27,11.70
2007,12,15,06,28,18.40
2007,12,15,06,29,19.90
2007,12,15,06,30,16.70
2007,12,15,06,31,20.60
2007,12,15,06,32,19.90
2007,12,15,06,33,15.40
2007,12,15,06,34,9.90
2007,12,15,06,35,10.90
2007,12,15,06,36,9.90
2007,12,15,06,37,17.40
2007,12,15,06,38,14.20
2007,12,15,06,39,10.10
2007,12,15,06,40,12.00
2007,12,15,06,41,12.10
2007,12,15,06,42,10.90
2007,12,15,06,43,15.20
2007,12,15,06,44,9.90
2007,12,15,06,45,22.80
2007,12,15,06,46,15.50
2007,12,15,06,47,14.40
2007,12,15,06,48,12.90
2007,12,15,06,49,22.80
2007,12,15,06,50,14.80
2007,12,15,06,51,8.90
2007,12,15,06,52,17.50
2007,12,15,06,53,21.30
2007,12,15,06,54,26.10
2007,12,15,06,55,14.80
2007,12,15,06,56,13.30
2007,12,15,06,57,12.30
2007,12,15,06,58,14.60
2007,12,15,06,59,17.60
2007,12,15,07,00,9.90
2007,12,15,07,01,15.50
2007,12,15,07,02,10.70
2007,12,15,07,03,13.00
2007,12,15,07,04,11.00
2007,12,15,07,05,9.10
2007,12,15,07,06,8.50
2007,12,15,07,07,9.00
2007,12,15,07,08,12.30
2007,12,15,07,09,10.40
2007,12,15,07,10,10.30
2007,12,15,07,11,7.90
2007,12,15,07,12,9.80
2007,12,15,07,13,9.80
2007,12,15,07,14,15.60
2007,12,15,07,15,11.70
2007,12,15,07,16,7.10
2007,12,15,07,17,7.70
2007,12,15,07,18,14.60
2007,12,15,07,19,7.80
2007,12,15,07,20,17.10
2007,12,15,07,21,14.30
2007,12,15,07,22,10.80
2007,12,15,07,23,15.40
2007,12,15,07,24,13.40
2007,12,15,07,25,14.70
2007,12,15,07,26,9.50
2007,12,15,07,27,9.80
2007,12,15,07,28,8.80
2007,12,15,07,29,14.20
2007,12,15,07,30,12.30
2007,12,15,07,31,21.70
2007,12,15,07,32,22.80
2007,12,15,07,33,14.00
2007,12,15,07,34,19.40
2007,12,15,07,35,11.50
2007,12,15,07,36,15.70
2007,12,15,07,37,11.50
2007,12,15,07,38,13.90
2007,12,15,07,39,15.40
2007,12,15,07,40,14.50
2007,12,15,07,41,18.90
2007,12,15,07,42,12.80
2007,12,15,07,43,18.20
2007,12,15,07,44,9.20
2007,12,15,07,45,13.10
2007,12,15,07,46,13.90
2007,12,15,07,47,12.10
2007,12,15,07,48,13.80
2007,12,15,07,49,13.00
2007,12,15,07,50,11.30
2007,12,15,07,51,13.70
2007,12,15,07,52,13.30
2007,12,15,07,53,12.70
2007,12,15,07,54,11.90
2007,12,15,07,55,11.10
2007,12,15,07,56,16.60
2007,12,15,07,57,13.50
2007,12,15,07,58,16.60
2007,12,15,07,59,32.20
2007,12,15,08,00,20.90
2007,12,15,08,01,21.10
2007,12,15,08,02,20.00
2007,12,15,08,03,18.90
2007,12,15,08,04,13.70
2007,12,15,08,05,13.70
2007,12,15,08,06,12.60
2007,12,15,08,07,15.00
2007,12,15,08,08,20.60
2007,12,15,08,09,16.00
2007,12,15,08,10,13.40
2007,12,15,08,11,11.30
2007,12,15,08,12,15.00
2007,12,15,08,13,13.00
2007,12,15,08,14,11.20
2007,12,15,08,15,10.50
2007,12,15,08,16,13.50
2007,12,15,08,17,19.60
2007,12,15,08,18,17.70
2007,12,15,08,19,16.10
2007,12,15,08,20,12.50
2007,12,15,08,21,12.40
2007,12,15,08,22,15.40
2007,12,15,08,23,17.90
2007,12,15,08,24,15.40
2007,12,15,08,25,14.90
2007,12,15,08,26,15.00
2007,12,15,08,27,13.20
2007,12,15,08,28,14.80
2007,12,15,08,29,13.50
2007,12,15,08,30,14.00
2007,12,15,08,31,11.80
2007,12,15,08,32,16.20
2007,12,15,08,33,13.90
2007,12,15,08,34,11.50
2007,12,15,08,35,16.90
2007,12,15,08,36,14.30
2007,12,15,08,37,17.70
2007,12,15,08,38,15.60
2007,12,15,08,39,13.30
2007,12,15,08,40,15.80
2007,12,15,08,41,20.70
2007,12,15,08,42,13.50
2007,12,15,08,43,17.90
2007,12,15,08,44,9.80
2007,12,15,08,45,11.70
2007,12,15,08,46,21.30
2007,12,15,08,47,13.60
2007,12,15,08,48,10.40
2007,12,15,08,49,11.10
2007,12,15,08,50,9.00
2007,12,15,08,51,6.10
2007,12,15,08,52,7.50
2007,12,15,08,53,8.50
2007,12,15,08,54,9.80
2007,12,15,08,55,7.60
2007,12,15,08,56,8.70
2007,12,15,08,57,10.90
2007,12,15,08,58,9.30
2007,12,15,08,59,8.90
2007,12,15,09,00,9.90
2007,12,15,09,01,7.50
2007,12,15,09,02,10.90
2007,12,15,09,03,14.10
2007,12,15,09,04,11.10
2007,12,15,09,05,9.20
2007,12,15,09,06,12.40
2007,12,15,09,07,10.00
2007,12,15,09,08,12.50
2007,12,15,09,09,16.30
2007,12,15,09,10,11.50
2007,12,15,09,11,11.70
2007,12,15,09,12,12.70
2007,12,15,09,13,10.70
2007,12,15,09,14,12.80
2007,12,15,09,15,9.90
2007,12,15,09,16,8.70
2007,12,15,09,17,6.70
2007,12,15,09,18,10.00
2007,12,15,09,19,10.40
2007,12,15,09,20,9.80
2007,12,15,09,21,8.20
2007,12,15,09,22,11.90
2007,12,15,09,23,11.40
2007,12,15,09,24,9.90
2007,12,15,09,25,9.50
2007,12,15,09,26,11.20
2007,12,15,09,27,16.10
2007,12,15,09,28,16.30
2007,12,15,09,29,13.20
2007,12,15,09,30,7.60
2007,12,15,09,31,9.80
2007,12,15,09,32,6.90
2007,12,15,09,33,12.30
2007,12,15,09,34,8.20
2007,12,15,09,35,7.90
2007,12,15,09,36,10.40
2007,12,15,09,37,10.90
2007,12,15,09,38,11.30
2007,12,15,09,39,15.80
2007,12,15,09,40,9.90
2007,12,15,09,41,8.50
2007,12,15,09,42,8.70
2007,12,15,09,43,8.10
2007,12,15,09,44,8.10
2007,12,15,09,45,9.00
2007,12,15,09,46,11.50
2007,12,15,09,47,13.40
2007,12,15,09,48,13.70
2007,12,15,09,49,12.20
2007,12,15,09,50,10.00
2007,12,15,09,51,10.00
2007,12,15,09,52,12.70
2007,12,15,09,53,7.80
2007,12,15,09,54,7.60
2007,12,15,09,55,11.60
2007,12,15,09,56,13.10
2007,12,15,09,57,9.50
2007,12,15,09,58,12.10
2007,12,15,09,59,14.70
2007,12,15,10,00,8.70
2007,12,15,10,01,7.30
2007,12,15,10,02,9.30
2007,12,15,10,03,7.50
2007,12,15,10,04,5.90
2007,12,15,10,05,7.40
2007,12,15,10,06,5.40
2007,12,15,10,07,8.80
2007,12,15,10,08,9.10
2007,12,15,10,09,8.60
2007,12,15,10,10,11.30
2007,12,15,10,11,9.80
2007,12,15,10,12,14.50
2007,12,15,10,13,12.50
2007,12,15,10,14,14.40
2007,12,15,10,15,12.30
2007,12,15,10,16,14.60
2007,12,15,10,17,15.90
2007,12,15,10,18,12.10
2007,12,15,10,19,11.10
2007,12,15,10,20,8.20
2007,12,15,10,21,9.30
2007,12,15,10,22,6.70
2007,12,15,10,23,13.60
2007,12,15,10,24,14.00
2007,12,15,10,25,14.30
2007,12,15,10,26,14.80
2007,12,15,10,27,15.80
2007,12,15,10,28,13.50
2007,12,15,10,29,13.30
2007,12,15,10,30,6.20
2007,12,15,10,31,11.60
2007,12,15,10,32,10.50
2007,12,15,10,33,8.60
2007,12,15,10,34,7.10
2007,12,15,10,35,14.90
2007,12,15,10,36,8.40
2007,12,15,10,37,8.60
2007,12,15,10,38,9.60
2007,12,15,10,39,11.00
2007,12,15,10,40,11.90
2007,12,15,10,41,7.00
2007,12,15,10,42,9.80
2007,12,15,10,43,7.90
2007,12,15,10,44,8.40
2007,12,15,10,45,8.30
2007,12,15,10,46,7.00
2007,12,15,10,47,8.40
2007,12,15,10,48,6.10
2007,12,15,10,49,6.70
2007,12,15,10,50,8.90
2007,12,15,10,51,12.70
2007,12,15,10,52,16.60
2007,12,15,10,53,11.30
2007,12,15,10,54,10.80
2007,12,15,10,55,10.10
2007,12,15,10,56,9.90
2007,12,15,10,57,6.70
2007,12,15,10,58,7.50
2007,12,15,10,59,5.40
2007,12,15,11,00,6.40
2007,12,15,11,01,8.50
2007,12,15,11,02,13.20
2007,12,15,11,03,9.80
2007,12,15,11,04,5.80
2007,12,15,11,05,7.40
2007,12,15,11,06,6.30
2007,12,15,11,07,6.50
2007,12,15,11,08,5.60
2007,12,15,11,09,8.90
2007,12,15,11,10,9.30
2007,12,15,11,11,8.30
2007,12,15,11,12,7.30
2007,12,15,11,13,8.20
2007,12,15,11,14,8.00
2007,12,15,11,15,5.70
2007,12,15,11,16,7.40
2007,12,15,11,17,7.50
2007,12,15,11,18,7.60
2007,12,15,11,19,7.20
2007,12,15,11,20,6.30
2007,12,15,11,21,6.20
2007,12,15,11,22,6.20
2007,12,15,11,23,9.10
2007,12,15,11,24,7.10
2007,12,15,11,25,9.00
2007,12,15,11,26,8.60
2007,12,15,11,27,12.30
2007,12,15,11,28,11.60
2007,12,15,11,29,3.90
2007,12,15,11,30,4.10
2007,12,15,11,31,9.10
2007,12,15,11,32,10.30
2007,12,15,11,33,7.80
2007,12,15,11,34,8.10
2007,12,15,11,35,9.10
2007,12,15,11,36,8.30
2007,12,15,11,37,9.80
2007,12,15,11,38,8.80
2007,12,15,11,39,12.80
2007,12,15,11,40,15.30
2007,12,15,11,41,11.00
2007,12,15,11,42,11.30
2007,12,15,11,43,12.10
2007,12,15,11,44,8.60
2007,12,15,11,45,13.50
2007,12,15,11,46,17.50
2007,12,15,11,47,11.20
2007,12,15,11,48,14.60
2007,12,15,11,49,9.20
2007,12,15,11,50,11.70
2007,12,15,11,51,14.70
2007,12,15,11,52,10.20
2007,12,15,11,53,13.40
2007,12,15,11,54,16.40
2007,12,15,11,55,16.80
2007,12,15,11,56,14.20
2007,12,15,11,57,13.90
2007,12,15,11,58,11.50
2007,12,15,11,59,13.30
2007,12,15,12,00,8.10
2007,12,15,12,01,17.20
2007,12,15,12,02,12.20
2007,12,15,12,03,12.20
2007,12,15,12,04,11.60
2007,12,15,12,05,13.50
2007,12,15,12,06,13.30
2007,12,15,12,07,16.10
2007,12,15,12,08,15.40
2007,12,15,12,09,10.80
2007,12,15,12,10,13.30
2007,12,15,12,11,16.50
2007,12,15,12,12,10.90
2007,12,15,12,13,13.10
2007,12,15,12,14,11.60
2007,12,15,12,15,13.30
2007,12,15,12,16,16.90
2007,12,15,12,17,14.00
2007,12,15,12,18,12.60
2007,12,15,12,19,9.20
2007,12,15,12,20,9.10
2007,12,15,12,21,9.40
2007,12,15,12,22,16.10
2007,12,15,12,23,12.10
2007,12,15,12,24,10.90
2007,12,15,12,25,11.20
2007,12,15,12,26,9.40
2007,12,15,12,27,11.70
2007,12,15,12,28,14.80
2007,12,15,12,29,10.50
2007,12,15,12,30,8.80
2007,12,15,12,31,11.60
2007,12,15,12,32,10.70
2007,12,15,12,33,20.10
2007,12,15,12,34,12.90
2007,12,15,12,35,11.30
2007,12,15,12,36,9.80
2007,12,15,12,37,14.40
2007,12,15,12,38,7.20
2007,12,15,12,39,9.80
2007,12,15,12,40,9.70
2007,12,15,12,41,11.50
2007,12,15,12,42,8.40
2007,12,15,12,43,11.60
2007,12,15,12,44,8.60
2007,12,15,12,45,14.00
2007,12,15,12,46,8.10
2007,12,15,12,47,8.90
2007,12,15,12,48,7.20
2007,12,15,12,49,6.40
2007,12,15,12,50,12.60
2007,12,15,12,51,10.10
2007,12,15,12,52,13.40
2007,12,15,12,53,5.20
2007,12,15,12,54,6.00
2007,12,15,12,55,8.10
2007,12,15,12,56,10.40
2007,12,15,12,57,16.90
2007,12,15,12,58,14.90
2007,12,15,12,59,10.10
2007,12,15,13,00,14.40
2007,12,15,13,01,15.70
2007,12,15,13,02,12.30
2007,12,15,13,03,15.60
2007,12,15,13,04,8.90
2007,12,15,13,05,5.00
2007,12,15,13,06,10.80
2007,12,15,13,07,9.70
2007,12,15,13,08,13.80
2007,12,15,13,09,9.20
2007,12,15,13,10,7.10
2007,12,15,13,11,10.70
2007,12,15,13,12,9.10
2007,12,15,13,13,9.70
2007,12,15,13,14,11.10
2007,12,15,13,15,9.70
2007,12,15,13,16,6.90
2007,12,15,13,17,6.00
2007,12,15,13,18,5.40
2007,12,15,13,19,5.50
2007,12,15,13,20,7.40
2007,12,15,13,21,6.40
2007,12,15,13,22,5.60
2007,12,15,13,23,8.00
2007,12,15,13,24,8.90
2007,12,15,13,25,8.20
2007,12,15,13,26,7.60
2007,12,15,13,27,6.40
2007,12,15,13,28,7.60
2007,12,15,13,29,9.60
2007,12,15,13,30,7.40
2007,12,15,13,31,6.50
2007,12,15,13,32,11.70
2007,12,15,13,33,10.50
2007,12,15,13,34,11.70
2007,12,15,13,35,9.30
2007,12,15,13,36,6.20
2007,12,15,13,37,10.60
2007,12,15,13,38,11.30
2007,12,15,13,39,7.90
2007,12,15,13,40,16.90
2007,12,15,13,41,19.70
2007,12,15,13,42,17.30
2007,12,15,13,43,11.40
2007,12,15,13,44,11.30
2007,12,15,13,45,22.30
2007,12,15,13,46,22.50
2007,12,15,13,47,18.60
2007,12,15,13,48,18.60
2007,12,15,13,49,23.80
2007,12,15,13,50,19.40
2007,12,15,13,51,10.10
2007,12,15,13,52,13.80
2007,12,15,13,53,13.80
2007,12,15,13,54,8.20
2007,12,15,13,55,14.60
2007,12,15,13,56,12.70
2007,12,15,13,57,9.80
2007,12,15,13,58,15.90
2007,12,15,13,59,15.70
2007,12,15,14,00,8.50
2007,12,15,14,01,17.00
2007,12,15,14,02,6.90
2007,12,15,14,03,10.40
2007,12,15,14,04,10.10
2007,12,15,14,05,10.80
2007,12,15,14,06,9.50
2007,12,15,14,07,12.30
2007,12,15,14,08,13.20
2007,12,15,14,09,10.30
2007,12,15,14,10,13.30
2007,12,15,14,11,9.60
2007,12,15,14,12,7.60
2007,12,15,14,13,10.00
2007,12,15,14,14,11.10
2007,12,15,14,15,10.40
2007,12,15,14,16,11.30
2007,12,15,14,17,7.40
2007,12,15,14,18,8.10
2007,12,15,14,19,10.10
2007,12,15,14,20,9.30
2007,12,15,14,21,8.70
2007,12,15,14,22,8.00
2007,12,15,14,23,6.50
2007,12,15,14,24,7.70
2007,12,15,14,25,5.40
2007,12,15,14,26,9.00
2007,12,15,14,27,9.60
2007,12,15,14,28,10.10
2007,12,15,14,29,9.10
2007,12,15,14,30,10.80
2007,12,15,14,31,12.70
2007,12,15,14,32,8.50
2007,12,15,14,33,9.90
2007,12,15,14,34,10.30
2007,12,15,14,35,7.70
2007,12,15,14,36,11.90
2007,12,15,14,37,8.70
2007,12,15,14,38,8.40
2007,12,15,14,39,8.00
2007,12,15,14,40,9.40
2007,12,15,14,41,7.80
2007,12,15,14,42,10.80
2007,12,15,14,43,7.40
2007,12,15,14,44,7.30
2007,12,15,14,45,8.10
2007,12,15,14,46,9.80
2007,12,15,14,47,13.10
2007,12,15,14,48,12.90
2007,12,15,14,49,10.90
2007,12,15,14,50,11.10
2007,12,15,14,51,14.10
2007,12,15,14,52,8.80
2007,12,15,14,53,10.40
2007,12,15,14,54,15.30
2007,12,15,14,55,15.00
2007,12,15,14,56,14.30
2007,12,15,14,57,9.30
2007,12,15,14,58,18.10
2007,12,15,14,59,15.20
2007,12,15,15,00,20.80
2007,12,15,15,01,6.60
2007,12,15,15,02,19.90
2007,12,15,15,03,10.30
2007,12,15,15,04,7.60
2007,12,15,15,05,11.30
2007,12,15,15,06,11.80
2007,12,15,15,07,14.90
2007,12,15,15,08,8.10
2007,12,15,15,09,10.40
2007,12,15,15,10,11.00
2007,12,15,15,11,11.20
2007,12,15,15,12,10.60
2007,12,15,15,13,16.10
2007,12,15,15,14,16.10
2007,12,15,15,15,15.80
2007,12,15,15,16,11.70
2007,12,15,15,17,10.10
2007,12,15,15,18,12.70
2007,12,15,15,19,11.80
2007,12,15,15,20,8.30
2007,12,15,15,21,8.00
2007,12,15,15,22,4.00
2007,12,15,15,23,6.70
2007,12,15,15,24,5.50
2007,12,15,15,25,7.20
2007,12,15,15,26,3.40
2007,12,15,15,27,10.20
2007,12,15,15,28,11.60
2007,12,15,15,29,7.00
2007,12,15,15,30,4.50
2007,12,15,15,31,4.60
2007,12,15,15,32,6.10
2007,12,15,15,33,10.10
2007,12,15,15,34,6.50
2007,12,15,15,35,6.30
2007,12,15,15,36,4.40
2007,12,15,15,37,6.20
2007,12,15,15,38,4.20
2007,12,15,15,39,7.50
2007,12,15,15,40,3.80
2007,12,15,15,41,4.50
2007,12,15,15,42,8.60
2007,12,15,15,43,5.30
2007,12,15,15,44,6.80
2007,12,15,15,45,4.40
2007,12,15,15,46,6.60
2007,12,15,15,47,5.40
2007,12,15,15,48,6.20
2007,12,15,15,49,4.20
2007,12,15,15,50,4.30
2007,12,15,15,51,6.40
2007,12,15,15,52,5.20
2007,12,15,15,53,3.10
2007,12,15,15,54,3.00
2007,12,15,15,55,3.10
2007,12,15,15,56,3.80
2007,12,15,15,57,4.80
2007,12,15,15,58,4.60
2007,12,15,15,59,3.50
2007,12,15,16,00,3.20
2007,12,15,16,01,1.90
2007,12,15,16,02,0.50
2007,12,15,16,03,2.00
2007,12,15,16,04,0.50
2007,12,15,16,05,0.00
2007,12,15,16,06,0.00
2007,12,15,16,07,2.30
2007,12,15,16,08,0.40
2007,12,15,16,09,4.40
2007,12,15,16,10,3.80
2007,12,15,16,11,3.30
2007,12,15,16,12,5.20
2007,12,15,16,13,5.80
2007,12,15,16,14,4.70
2007,12,15,16,15,6.40
2007,12,15,16,16,9.30
2007,12,15,16,17,6.10
2007,12,15,16,18,6.40
2007,12,15,16,19,6.20
2007,12,15,16,20,2.70
2007,12,15,16,21,4.50
2007,12,15,16,22,5.60
2007,12,15,16,23,5.70
2007,12,15,16,24,7.10
2007,12,15,16,25,7.00
2007,12,15,16,26,3.90
2007,12,15,16,27,7.30
2007,12,15,16,28,3.80
2007,12,15,16,29,5.20
2007,12,15,16,30,5.20
2007,12,15,16,31,7.10
2007,12,15,16,32,8.30
2007,12,15,16,33,6.50
2007,12,15,16,34,5.70
2007,12,15,16,35,5.60
2007,12,15,16,36,5.30
2007,12,15,16,37,6.50
2007,12,15,16,38,3.30
2007,12,15,16,39,3.20
2007,12,15,16,40,3.20
2007,12,15,16,41,5.50
2007,12,15,16,42,5.50
2007,12,15,16,43,4.30
2007,12,15,16,44,5.40
2007,12,15,16,45,5.50
2007,12,15,16,46,5.10
2007,12,15,16,47,4.90
2007,12,15,16,48,4.30
2007,12,15,16,49,6.10
2007,12,15,16,50,4.20
2007,12,15,16,51,4.30
2007,12,15,16,52,5.20
2007,12,15,16,53,4.30
2007,12,15,16,54,2.70
2007,12,15,16,55,3.30
2007,12,15,16,56,2.60
2007,12,15,16,57,3.20
2007,12,15,16,58,3.10
2007,12,15,16,59,3.90
2007,12,15,17,00,2.90
2007,12,15,17,01,3.30
2007,12,15,17,02,3.00
2007,12,15,17,03,1.60
2007,12,15,17,04,2.60
2007,12,15,17,05,3.50
2007,12,15,17,06,2.80
2007,12,15,17,07,3.20
2007,12,15,17,08,4.00
2007,12,15,17,09,3.60
2007,12,15,17,10,3.10
2007,12,15,17,11,4.70
2007,12,15,17,12,4.20
2007,12,15,17,13,3.80
2007,12,15,17,14,4.50
2007,12,15,17,15,4.10
2007,12,15,17,16,3.80
2007,12,15,17,17,4.50
2007,12,15,17,18,4.70
2007,12,15,17,19,4.70
2007,12,15,17,20,4.40
2007,12,15,17,21,4.70
2007,12,15,17,22,3.20
2007,12,15,17,23,4.30
2007,12,15,17,24,5.50
2007,12,15,17,25,5.80
2007,12,15,17,26,4.80
2007,12,15,17,27,5.20
2007,12,15,17,28,4.30
2007,12,15,17,29,4.90
2007,12,15,17,30,5.30
2007,12,15,17,31,5.30
2007,12,15,17,32,4.40
2007,12,15,17,33,4.70
2007,12,15,17,34,4.20
2007,12,15,17,35,4.90
2007,12,15,17,36,5.60
2007,12,15,17,37,4.30
2007,12,15,17,38,3.20